Peachtree City, GA

11:31 AM EST on January 22, 2018 (GMT -0500)
Peachtree City-Falcon

Weather History for KFFC - October, 2012

Change the Weather History Date:

Friday, October 5, 2012

  Actual Average Record
Temperature  
Mean Temperature 67 °F 65 °F  
Max Temperature 82 °F 77 °F 88 °F (2002)
Min Temperature 52 °F 53 °F 37 °F (2014)
Degree Days  
Heating Degree Days 0 2  
Month to date heating degree days 10  
Since 1 July heating degree days 23  
Cooling Degree Days 2 2  
Month to date cooling degree days 14  
Year to date cooling degree days 1622  
Growing Degree Days 17 (Base 50)    
Moisture  
Dew Point 57 °F    
Average Humidity 77    
Maximum Humidity 97    
Minimum Humidity 39    
Precipitation  
Precipitation 0.00 in 0.13 in 0.05 in (2015)
Month to date precipitation 0.68  
Year to date precipitation 39.25  
Snow  
Snow 0.00 in - - ()
Month to date snowfall  
Since 1 July snowfall  
Since 1 September snowfall  
Snow Depth -    
Sea Level Pressure  
Sea Level Pressure 30.14 in    
Wind  
Wind Speed 0 mph (SSE)    
Max Wind Speed 5 mph    
Max Gust Speed -    
Visibility 7 miles    
Events      
T = Trace of Precipitation, MM = Missing Value Source: NWS Daily Summary

Daily Weather History Graph

Daily Weather History Graph

Search for Another Location

Airport or City:

Trip Planner

Search our weather history database for the weather conditions in past years. The results will help you decide how hot, cold, wet, or windy it might be!

Date:

Astronomy

Oct. 05, 2012 Rise Set
Actual Time 7:35 AM EDT 7:16 PM EDT
Civil Twilight 7:10 AM EDT 7:41 PM EDT
Nautical Twilight 6:42 AM EDT 8:10 PM EDT
Astronomical Twilight 6:13 AM EDT 8:39 PM EDT
Moon 10:53 PM EDT (10/5) 12:28 PM EDT (10/5)
Length of Visible Light 12h 30m
Length of Day
11h 41m
Waning Gibbous, 74% of the Moon is Illuminated
Oct 5
Waning Gibbous
Oct 8
Last Quarter
Oct 15
New
Oct 21
First Quarter
Oct 29
Full

Hourly Weather History & Observations

Time (EDT) Temp. Heat Index Dew Point Humidity Pressure Visibility Wind Dir Wind Speed Gust Speed Precip Events Conditions
12:53 AM 57.0 °F - 55.0 °F 93% 30.23 in 5.0 mi Calm Calm - N/A   Clear
1:53 AM 55.9 °F - 54.0 °F 93% 30.21 in 5.0 mi Calm Calm - N/A   Clear
2:53 AM 55.0 °F - 53.1 °F 93% 30.21 in 5.0 mi Calm Calm - N/A   Clear
4:53 AM 53.1 °F - 52.0 °F 96% 30.19 in 5.0 mi Calm Calm - N/A   Clear
5:53 AM 53.1 °F - 51.1 °F 93% 30.19 in 5.0 mi Calm Calm - N/A   Clear
6:53 AM 52.0 °F - 51.1 °F 97% 30.21 in 5.0 mi Calm Calm - N/A   Clear
7:53 AM 52.0 °F - 50.0 °F 93% 30.21 in 3.0 mi Calm Calm - N/A   Clear
8:53 AM 57.0 °F - 54.0 °F 89% 30.22 in 4.0 mi Calm Calm - N/A   Clear
9:53 AM 63.0 °F - 57.9 °F 84% 30.22 in 7.0 mi Calm Calm - N/A   Clear
10:53 AM 72.0 °F - 60.1 °F 66% 30.20 in 10.0 mi Calm Calm - N/A   Clear
11:53 AM 77.0 °F - 59.0 °F 54% 30.18 in 10.0 mi Variable 4.6 mph - N/A   Clear
12:53 PM 78.1 °F - 57.9 °F 50% 30.16 in 10.0 mi Calm Calm - N/A   Clear
1:53 PM 79.0 °F - 57.0 °F 47% 30.13 in 10.0 mi Calm Calm - N/A   Clear
2:53 PM 81.0 °F 81.0 °F 57.0 °F 44% 30.10 in 10.0 mi East 3.5 mph - N/A   Clear
3:53 PM 81.0 °F 81.0 °F 57.0 °F 44% 30.07 in 10.0 mi WSW 4.6 mph - N/A   Clear
4:53 PM 82.0 °F 81.4 °F 55.0 °F 39% 30.06 in 10.0 mi Calm Calm - N/A   Clear
5:53 PM 80.1 °F 81.1 °F 61.0 °F 52% 30.04 in 10.0 mi Calm Calm - N/A   Clear
6:53 PM 71.1 °F - 64.0 °F 78% 30.04 in 10.0 mi Calm Calm - N/A   Clear
7:53 PM 66.0 °F - 62.1 °F 87% 30.05 in 8.0 mi Calm Calm - N/A   Clear
8:53 PM 63.0 °F - 61.0 °F 93% 30.06 in 6.0 mi Calm Calm - N/A   Clear
9:53 PM 61.0 °F - 59.0 °F 93% 30.06 in 5.0 mi Calm Calm - N/A   Clear
10:53 PM 61.0 °F - 59.0 °F 93% 30.06 in 6.0 mi Calm Calm - N/A   Clear
11:53 PM 59.0 °F - 57.9 °F 96% 30.07 in 5.0 mi Calm Calm - N/A   Clear